Regional Weather Roundup
Issued by NWS

Home | Current Version | Previous Version | Text Only | Print | Product List | Glossary On
Versions: 1 2 3 4 5 6 7 8 9 10 11 12 13 14 15 16 17 18 19 20 21 22 23 24 25 26 27 28 29 30 31 32 33 34 35 36 37 38 39 40 41 42 43 44 45 46 47 48 49 50
000
ASUS43 KFSD 021010
RWRSD

WEATHER ROUNDUP FOR SOUTH DAKOTA
NATIONAL WEATHER SERVICE SIOUX FALLS SD
500 AM CDT SUN AUG 02 2015

NOTE: "FAIR" INDICATES FEW OR NO CLOUDS BELOW 12,000 FEET WITH NO
SIGNIFICANT WEATHER AND/OR OBSTRUCTIONS TO VISIBILITY.


SDZ001>005-009-010-012>017-021100-
NORTHWEST AND NORTH CENTRAL SOUTH DAKOTA

CITY           SKY/WX    TMP DP  RH WIND       PRES   REMARKS
BUFFALO          N/A     64  49  57 N8        29.87R
FAITH            N/A     63  47  55 N16       29.86R
MOBRIDGE       CLEAR     68  50  52 NW12      29.76R
$$

SDZ012>016-024>037-041>051-057-063-072>074-021100-
SOUTHWEST AND SOUTH CENTRAL SOUTH DAKOTA

CITY           SKY/WX    TMP DP  RH WIND       PRES   REMARKS
RAPID CTY ARPT CLEAR     68  54  60 NW7       29.90S
PIERRE         CLEAR     65  59  81 NW8       29.78R
CUSTER         CLEAR     65  52  62 W5        30.09S
ELLSWORTH AFB  CLEAR     66  54  63 NW9       29.90S
PHILIP         CLEAR     69  60  73 SW12      29.81F
PINE RIDGE     CLEAR     58  54  86 SW5       29.93F
WINNER         FAIR      70  57  63 SW9       29.80F
$$

SDZ004>011-016>023-039-040-021100-
NORTHEAST SOUTH DAKOTA

CITY           SKY/WX    TMP DP  RH WIND       PRES   REMARKS
ABERDEEN       CLEAR     63  59  87 W10       29.69S
WATERTOWN      CLEAR     64  61  90 SW7       29.73F
BROOKINGS      CLEAR     63  57  82 S6        29.78S
SISSETON         N/A     74  58  57 W16       29.62F
$$

SDZ017-020-022-023-036>040-048>070-021100-
SOUTHEAST SOUTH DAKOTA

CITY           SKY/WX    TMP DP  RH WIND       PRES   REMARKS
SIOUX FALLS    CLEAR     68  60  75 SW6       29.76F
HURON            N/A     65  60  84 E3        29.73R
CHAMBERLAIN    CLEAR     64  60  86 W5        29.79S
MITCHELL       CLEAR     64  60  87 SW5       29.76S
YANKTON        CLEAR     72  64  78 SW8       29.76F
$$

ABBREVIATIONS USED IN REMARKS
   TC - TEMPERATURE IN CELSIUS
  WCI - WIND CHILL INDEX
   HX - HEAT INDEX
  VSB - VISIBILITY



USA.gov is the U.S. government's official web portal to all federal, state and local government web resources and services.